Location: Bennemühlen
(52.5740°N, 9.7135°E)
Time: 00:52:32
(UTC+00:00)

ALOS 2 - Pass Details

Date: 19 May 2025
Orbit: 630 x 632 km, 97.9° (Epoch: 15 June)

Event Time Altitude Azimuth Distance (km) Brightness Sun altitude
Exits shadow 22:19:02 28° 143° (SE) 1,193 3.5 -16.3°
Maximum altitude 22:21:14 63° 71° (ENE) 711 2.8 -16.4°
Drops below altitude 10° 22:25:36 10° 351° (N) 2,028 6.5 -16.6°
Sets 22:27:49 0° 348° (NNW) 2,940 7.9 -16.6°
